TimeEST,TemperatureF,Dew PointF,Humidity,Sea Level PressureIn,VisibilityMPH,Wind Direction,Wind SpeedMPH,Gust SpeedMPH,PrecipitationIn,Events,Conditions,WindDirDegrees,DateUTC
12:02 AM,73.4,71.6,94,30.11,3.0,East,16.1,25.3,0.08,Rain,Rain,100,2013-11-22 05:02:00
12:20 AM,73.4,71.6,94,30.11,1.5,East,16.1,23.0,0.11,Rain-Thunderstorm,Heavy Thunderstorms and Rain,80,2013-11-22 05:20:00
12:33 AM,73.4,71.6,94,30.12,2.5,East,15.0,-,0.19,Rain-Thunderstorm,Thunderstorms and Rain,90,2013-11-22 05:33:00
12:38 AM,73.4,71.6,94,30.12,4.0,East,12.7,-,0.20,Rain-Thunderstorm,Light Thunderstorms and Rain,90,2013-11-22 05:38:00
12:53 AM,73.0,72.0,96,30.12,6.0,East,12.7,-,0.21,Rain,Light Rain,90,2013-11-22 05:53:00
1:46 AM,73.4,71.6,94,30.11,6.0,ESE,13.8,-,0.01,Rain,Light Rain,110,2013-11-22 06:46:00
1:53 AM,73.0,71.1,93,30.11,5.0,ESE,10.4,-,0.02,Rain,Light Rain,120,2013-11-22 06:53:00
2:32 AM,71.6,69.8,94,30.10,7.0,East,4.6,-,0.01,Rain,Light Rain,80,2013-11-22 07:32:00
2:53 AM,72.0,72.0,100,30.09,5.0,Variable,3.5,-,0.01,Rain,Light Rain,0,2013-11-22 07:53:00
2:56 AM,71.6,71.6,100,30.09,4.0,Calm,Calm,-,0.00,Rain-Thunderstorm,Thunderstorms and Rain,0,2013-11-22 07:56:00
3:12 AM,73.4,71.6,94,30.09,1.0,ENE,17.3,21.9,0.17,Rain-Thunderstorm,Heavy Thunderstorms and Rain,70,2013-11-22 08:12:00
3:20 AM,73.4,71.6,94,30.08,3.0,NNE,16.1,23.0,0.41,Rain-Thunderstorm,Heavy Thunderstorms and Rain,30,2013-11-22 08:20:00
3:31 AM,73.4,73.4,100,30.09,4.0,ENE,13.8,-,0.47,Rain,Light Rain,60,2013-11-22 08:31:00
3:53 AM,73.0,72.0,96,30.09,5.0,ENE,11.5,-,0.50,Rain,Light Rain,60,2013-11-22 08:53:00
4:53 AM,75.0,71.1,87,30.09,10.0,ENE,12.7,-,0.00,Rain,Light Rain,60,2013-11-22 09:53:00
5:08 AM,75.2,71.6,89,30.09,9.0,ENE,15.0,23.0,0.00,,Mostly Cloudy,60,2013-11-22 10:08:00
5:53 AM,75.0,71.1,87,30.10,10.0,ENE,15.0,23.0,0.00,,Mostly Cloudy,60,2013-11-22 10:53:00
6:53 AM,75.0,71.1,87,30.11,10.0,ENE,12.7,-,N/A,,Mostly Cloudy,60,2013-11-22 11:53:00
7:53 AM,75.9,71.1,85,30.12,10.0,ENE,13.8,-,N/A,,Mostly Cloudy,70,2013-11-22 12:53:00
8:03 AM,75.2,69.8,83,30.12,10.0,ENE,13.8,21.9,N/A,,Overcast,70,2013-11-22 13:03:00
8:53 AM,75.9,70.0,82,30.13,10.0,East,18.4,26.5,N/A,,Mostly Cloudy,80,2013-11-22 13:53:00
9:53 AM,77.0,70.0,79,30.14,10.0,ENE,17.3,26.5,N/A,,Mostly Cloudy,70,2013-11-22 14:53:00
10:53 AM,79.0,70.0,74,30.14,10.0,ENE,17.3,25.3,N/A,,Mostly Cloudy,70,2013-11-22 15:53:00
11:53 AM,78.1,70.0,76,30.12,10.0,ENE,15.0,24.2,N/A,,Scattered Clouds,70,2013-11-22 16:53:00
12:53 PM,78.1,70.0,76,30.09,10.0,ENE,13.8,24.2,N/A,,Mostly Cloudy,60,2013-11-22 17:53:00
1:53 PM,78.1,70.0,76,30.07,10.0,ENE,15.0,19.6,N/A,,Mostly Cloudy,60,2013-11-22 18:53:00
2:53 PM,78.1,70.0,76,30.06,10.0,ENE,15.0,-,N/A,,Overcast,60,2013-11-22 19:53:00
3:53 PM,77.0,70.0,79,30.07,10.0,ENE,16.1,21.9,N/A,,Overcast,70,2013-11-22 20:53:00
4:53 PM,75.9,70.0,82,30.06,10.0,ENE,11.5,-,N/A,,Overcast,60,2013-11-22 21:53:00
5:53 PM,75.9,69.1,79,30.07,10.0,NE,11.5,18.4,N/A,,Overcast,40,2013-11-22 22:53:00
6:53 PM,75.9,69.1,79,30.07,10.0,NE,11.5,-,N/A,,Overcast,50,2013-11-22 23:53:00
7:53 PM,75.0,70.0,84,30.07,10.0,ENE,15.0,-,0.00,,Overcast,60,2013-11-23 00:53:00
8:53 PM,75.0,70.0,84,30.08,10.0,ENE,9.2,-,N/A,,Scattered Clouds,60,2013-11-23 01:53:00
9:53 PM,75.0,70.0,84,30.08,10.0,ENE,12.7,-,N/A,,Overcast,60,2013-11-23 02:53:00
10:53 PM,75.0,70.0,84,30.09,10.0,ENE,11.5,-,0.00,,Mostly Cloudy,60,2013-11-23 03:53:00
11:53 PM,73.9,70.0,87,30.07,9.0,NE,10.4,19.6,0.00,Rain,Light Rain,50,2013-11-23 04:53:00